• MPC Preparation (Info)

  • MPEC 2001-D33 : 2001 DZ76

    The following Minor Planet Electronic Circular may be linked-to from your own Web pages, but must not otherwise be redistributed electronically.

    A form allowing access to any MPEC is at the bottom of this page.


    Read MPEC 2001-D32 Read MPEC 2001-D34


    M.P.E.C. 2001-D33                                Issued 2001 Feb. 23, 17:20 UT
    
         The Minor Planet Electronic Circulars contain information on unusual
             minor planets and routine data on comets.  They are published
       on behalf of Commission 20 of the International Astronomical Union by the
              Minor Planet Center, Smithsonian Astrophysical Observatory,
                              Cambridge, MA 02138, U.S.A.
    
                 Prepared using the Tamkin Foundation Computer Network
    
                                  MPC@CFA.HARVARD.EDU
              URL http://cfa-www.harvard.edu/iau/mpc.html  ISSN 1523-6714
    
                                       2001 DZ76
    
    Observations:
         K01D76Z* C2001 02 20.28960 08 50 33.94 +12 45 29.8          17.8        704
         K01D76Z  C2001 02 20.30343 08 50 48.42 +12 48 22.4          18.1        704
         K01D76Z  C2001 02 20.31732 08 51 03.14 +12 51 16.1          18.2        704
         K01D76Z  C2001 02 20.33228 08 51 19.24 +12 54 26.2          17.8        704
         K01D76Z  C2001 02 20.34757 08 51 35.99 +12 57 39.8          18.5        704
         K01D76Z  C2001 02 21.24570 09 18 54.64 +17 29 42.5          17.0        704
         K01D76Z  C2001 02 21.25992 09 19 28.57 +17 35 41.2          17.2        704
         K01D76Z  C2001 02 21.27440 09 20 03.73 +17 41 49.1          17.6        704
         K01D76Z  C2001 02 21.28871 09 20 38.86 +17 47 56.5          16.0        704
         K01D76Z  C2001 02 23.03850 13 54 50.43 +37 34 00.1          15.6 R      946
         K01D76Z  C2001 02 23.03985 13 55 16.26 +37 33 54.0                      946
         K01D76Z  C2001 02 23.12178 14 21 26.46 +37 14 16.5                      946
         K01D76Z  C2001 02 23.12347 14 21 58.57 +37 13 36.8                      946
         K01D76Z  C2001 02 23.12565 14 22 39.86 +37 12 46.4          15.9 R      946
         K01D76Z  C2001 02 23.47021 16 01 09.55 +32 24 34.6          18.5        704
         K01D76Z  C2001 02 23.47143 16 01 26.45 +32 23 13.4          18.9        704
         K01D76Z  C2001 02 23.47264 16 01 43.57 +32 21 52.3          19.0        704
         K01D76Z  C2001 02 23.47386 16 02 00.25 +32 20 32.3          19.0        704
         K01D76Z  C2001 02 23.49450 16 06 39.38 +31 57 38.1          18.8        704
         K01D76Z  C2001 02 23.49583 16 06 57.34 +31 56 07.6          18.2        704
         K01D76Z  C2001 02 23.49712 16 07 14.23 +31 54 41.7          18.0        704
         K01D76Z  C2001 02 23.49834 16 07 30.51 +31 53 19.3          18.2        704
         K01D76Z  C2001 02 23.49964 16 07 47.79 +31 51 51.2          18.0        704
         K01D76Z  C2001 02 23.49977 16 07 49.58 +31 51 42.3          17.9        704
         K01D76Z  C2001 02 23.50090 16 08 04.54 +31 50 26.5          18.4        704
         K01D76Z  C2001 02 23.50103 16 08 06.22 +31 50 17.5          18.1        704
         K01D76Z  C2001 02 23.50212 16 08 20.59 +31 49 04.4          18.3        704
         K01D76Z  C2001 02 23.50225 16 08 22.35 +31 48 55.0          17.9        704
         K01D76Z  C2001 02 23.50334 16 08 36.66 +31 47 41.9          17.9        704
         K01D76Z  C2001 02 23.50347 16 08 38.53 +31 47 32.2          18.1        704
         K01D76Z  C2001 02 23.50456 16 08 52.81 +31 46 19.0          18.3        704
         K01D76Z  C2001 02 23.50469 16 08 54.64 +31 46 09.2          18.3        704
         K01D76Z  C2001 02 23.50578 16 09 08.89 +31 44 56.0          18.1        704
         K01D76Z  C2001 02 23.50591 16 09 10.70 +31 44 46.8          17.7        704
         K01D76Z  C2001 02 23.50701 16 09 25.06 +31 43 33.2          18.3        704
         K01D76Z  C2001 02 23.50714 16 09 26.80 +31 43 24.0          18.2        704
         K01D76Z  C2001 02 23.50823 16 09 40.99 +31 42 10.4          18.5        704
         K01D76Z  C2001 02 23.50836 16 09 42.66 +31 42 01.5          17.9        704
         K01D76Z  C2001 02 23.50945 16 09 56.99 +31 40 47.6          18.3        704
         K01D76Z  C2001 02 23.50958 16 09 58.64 +31 40 38.6          18.1        704
         K01D76Z  C2001 02 23.51068 16 10 13.29 +31 39 22.2          19.0        704
         K01D76Z  C2001 02 23.51081 16 10 14.60 +31 39 15.3          18.4        704
    
    Observer details:
    704 Lincoln Laboratory ETS, New Mexico.  Observers M. Blythe, F. Shelly,
        M. Bezpalko, R. Huber, L. Manguso, S. Adams.  Measurers J. Stuart,
        R. Sayer, J. B. Evans, H. Viggh.  1.0-m f/2.15 reflector + CCD.
    946 Ametlla de Mar.  Observer J. Nomen.  0.40-m f/2.0 Schmidt + CCD.
    
    Orbital elements:
    2001 DZ76
    Epoch 2001 Apr. 1.0 TT = JDT 2452000.5                  Spahr
    M   2.84812              (2000.0)            P               Q
    n   0.27323376     Peri.   38.05398     -0.98271563     +0.17912233
    a   2.3520496      Node   152.15713     -0.18467687     -0.93109229
    e   0.6076572      Incl.    5.74424     -0.01282378     -0.31777718
    P   3.61           H   25.3           G   0.15           U   6
    Residuals in seconds of arc
    010220 704  0.1-  0.1-    010223 704 (4.2-  1.2+)   010223 704  1.0-  0.2+
    010220 704  0.2+  0.1-    010223 704 (3.2-  0.4+)   010223 704  1.0+  0.7-
    010220 704  0.1+  0.7-    010223 704 (2.8+  0.9-)   010223 704  0.0   0.2-
    010220 704  0.1-  0.6+    010223 704  1.8+  0.3-    010223 704  1.5+  1.2-
    010220 704  0.2-  0.1+    010223 704  1.3-  0.7+    010223 704  0.4+  0.6-
    010221 704  0.1-  0.1+    010223 704  1.6+  0.4-    010223 704  1.8+  1.0-
    010221 704  0.7-  0.1+    010223 704  1.9-  0.5+    010223 704  0.7+  0.1-
    010221 704  0.6+  0.2-    010223 704  1.0-  0.2+    010223 704  1.2+  0.5-
    010221 704  0.0   0.3+    010223 704  0.5-  0.3-    010223 704  0.0   0.2-
    010223 946 (2.9+  1.1-)   010223 704  0.3+  0.4-    010223 704  0.5-  0.3-
    010223 946  0.0   0.0     010223 704  0.3+  0.0     010223 704  0.4+  0.2-
    010223 946 (1.5+  1.9-)   010223 704  0.2-  0.2-    010223 704  0.2-  0.4-
    010223 946 (2.8+  2.1-)   010223 704  0.6-  0.3+    010223 704 (3.4+  2.1-)
    010223 946 (3.3+  0.8-)   010223 704  0.1-  0.3-    010223 704  1.6-  0.1-
    
    Ephemeris:
    2001 DZ76                a,e,i = 2.35, 0.61, 6                   q = 0.9228
    Date    TT    R. A. (2000) Decl.     Delta      r     Elong.  Phase     V
    2001 02 20.0  08 45.42   +11 52.3    0.021    1.009   158.4    21.2    18.0
    2001 02 20.5  08 55.17   +13 35.4    0.018    1.006   160.1    19.5    17.6
    2001 02 21.0  09 09.30   +15 59.4    0.015    1.003   162.6    17.2    17.1
    2001 02 21.5  09 31.35   +19 30.2    0.012    1.001   165.3    14.6    16.5
    2001 02 22.0  10 09.43   +24 50.2    0.0093   0.998   165.1    14.7    16.0
    2001 02 22.5  11 23.22   +32 24.1    0.0070   0.996   153.7    26.1    15.7
    2001 02 23.0  13 40.95   +37 40.3    0.0060   0.993   128.1    51.6    16.1
    2001 02 23.5  16 07.32   +31 53.3    0.0066   0.991    99.3    80.3    17.2
    2001 02 24.0  17 29.70   +22 51.6    0.0087   0.988    80.0    99.5    18.6
    2001 02 24.5  18 11.67   +16 31.7    0.011    0.986    69.1   110.3    19.7
    2001 02 25.0  18 35.56   +12 27.6    0.014    0.983    62.8   116.5    20.6
    2001 02 25.5  18 50.70   +09 44.5    0.017    0.981    58.8   120.3    21.3
    2001 02 26.0  19 01.07   +07 49.7    0.021    0.979    56.2   122.8    21.9
    2001 02 26.5  19 08.60   +06 25.2    0.024    0.977    54.4   124.5    22.3
    2001 02 27.0  19 14.32   +05 20.5    0.027    0.974    53.2   125.6    22.7
    2001 02 27.5  19 18.81   +04 29.6    0.030    0.972    52.3   126.3    23.0
    2001 02 28.0  19 22.44   +03 48.4    0.034    0.970    51.7   126.8    23.3
    2001 02 28.5  19 25.43   +03 14.4    0.037    0.968    51.2   127.1    23.5
    2001 03 01.0  19 27.95   +02 46.0    0.040    0.966    50.9   127.2    23.7
    2001 03 01.5  19 30.11   +02 21.7    0.044    0.964    50.7   127.2    23.9
    2001 03 02.0  19 31.98   +02 00.8    0.047    0.962    50.6   127.2    24.0
    
    Timothy B. Spahr             (C) Copyright 2001 MPC           M.P.E.C. 2001-D33
    

    Read MPEC 2001-D32 Read MPEC 2001-D34


    MPEC number:

    Enter an MPEC number in one of the following forms:

    • 1997-B01 (the full form)
    • J97B01 (the packed version of the full form)
    • B01 (the abbreviated form)